JTD207 EKCH-GCLP

Flight info

Callsign JTD207
Flight time N/A
Altitude 32000
Route NEXEN T503 GIMRU DCT KUXOD DCT MICOS DCT MAS DCT RASCA DCT FAMEN DCT AHVEC DCT RESMI DCT DEKOD DCT DISAK DCT ARKIP DCT ARNAV DCT LMG DCT UVELI DCT OSMOB DCT ARVID DCT PPN DCT NOLSA DCT ALEPO DCT VASUM N10 BAN DCT GOTOR DCT KAMPO DCT MONTO DCT MOLIN DCT HIJ DCT SVL DCT CLANA DCT KORNO UN857 TERTO
Aircraft B738/M-SDE2E3FGHIRWXY/LB1

Departure

Time N/A
Airport Copenhagen Kastrup Airport (EKCH)

Arrival

Time 2026-05-04 13:17
Airport Gran Canaria Airport (GCLP)
Time Latitude Longitude Altitude Speed Heading
2026-05-04 09:47 46.06072 1.15746 31968 ft 419 kts 200°
2026-05-04 09:47 46.03378 1.14293 31964 ft 419 kts 200°
2026-05-04 09:49 45.81652 1.02199 31957 ft 418 kts 209°
2026-05-04 09:51 45.65815 0.83727 31966 ft 420 kts 218°
2026-05-04 09:51 45.61323 0.78373 31973 ft 421 kts 218°
2026-05-04 09:52 45.56825 0.73025 31962 ft 421 kts 218°
2026-05-04 09:52 45.52316 0.67677 31966 ft 422 kts 218°
2026-05-04 09:53 45.47800 0.62336 31966 ft 422 kts 218°
2026-05-04 09:53 45.43278 0.56998 31960 ft 422 kts 218°
2026-05-04 09:54 45.38752 0.51664 31968 ft 423 kts 218°
2026-05-04 09:54 45.34220 0.46334 31964 ft 423 kts 218°
2026-05-04 09:55 45.29686 0.41012 31966 ft 423 kts 218°
2026-05-04 09:55 45.25150 0.35701 31965 ft 423 kts 218°
2026-05-04 09:56 45.20613 0.30402 31963 ft 422 kts 218°
2026-05-04 09:56 45.16085 0.25125 31959 ft 421 kts 218°
2026-05-04 09:57 45.11558 0.19857 31964 ft 421 kts 218°
2026-05-04 09:57 45.07032 0.14601 31964 ft 421 kts 218°
2026-05-04 09:58 45.02512 0.09365 31967 ft 420 kts 218°
2026-05-04 09:58 44.98023 0.04179 31962 ft 420 kts 218°
2026-05-04 10:00 44.80654 -0.15803 31964 ft 422 kts 218°
2026-05-04 10:04 44.46440 -0.47369 31960 ft 421 kts 207°
2026-05-04 10:04 44.41254 -0.51166 31963 ft 420 kts 207°
2026-05-04 10:05 44.36074 -0.54952 31963 ft 420 kts 207°
2026-05-04 10:05 44.30901 -0.58726 31962 ft 419 kts 207°
2026-05-04 10:06 44.25728 -0.62492 31963 ft 419 kts 207°
2026-05-04 10:06 44.20559 -0.66248 31962 ft 419 kts 207°
2026-05-04 10:08 44.02490 -0.79315 31962 ft 418 kts 207°
2026-05-04 10:08 43.97325 -0.83034 31971 ft 418 kts 208°
2026-05-04 10:09 43.92172 -0.86739 31962 ft 417 kts 208°
2026-05-04 10:09 43.87023 -0.90432 31963 ft 416 kts 208°
2026-05-04 10:10 43.81886 -0.94108 31960 ft 415 kts 208°
2026-05-04 10:10 43.76752 -0.97775 31966 ft 415 kts 208°
2026-05-04 10:11 43.71626 -1.01429 31960 ft 414 kts 208°
2026-05-04 10:11 43.66517 -1.05065 31965 ft 413 kts 208°
2026-05-04 10:12 43.61410 -1.08693 31966 ft 412 kts 208°
2026-05-04 10:12 43.56305 -1.12313 31970 ft 413 kts 208°
2026-05-04 10:13 43.51193 -1.15929 31972 ft 413 kts 208°
2026-05-04 10:13 43.46086 -1.19535 31974 ft 413 kts 208°
2026-05-04 10:14 43.40975 -1.23140 31988 ft 413 kts 208°
2026-05-04 10:16 43.20539 -1.37475 31991 ft 412 kts 208°
2026-05-04 10:16 43.15433 -1.41042 31985 ft 412 kts 208°
2026-05-04 10:17 43.10324 -1.44603 31994 ft 412 kts 208°
2026-05-04 10:19 42.89935 -1.58773 31972 ft 411 kts 209°
2026-05-04 10:19 42.84846 -1.62296 31973 ft 410 kts 209°
2026-05-04 10:20 42.79767 -1.65807 31970 ft 409 kts 209°
2026-05-04 10:20 42.74703 -1.69300 31959 ft 407 kts 209°
2026-05-04 10:21 42.69649 -1.72740 31963 ft 406 kts 208°
2026-05-04 10:21 42.64587 -1.76131 31970 ft 405 kts 208°
2026-05-04 10:22 42.57013 -1.81202 31970 ft 404 kts 209°
2026-05-04 10:23 42.51973 -1.84572 31965 ft 403 kts 209°
2026-05-04 10:25 42.31981 -1.97911 31972 ft 402 kts 209°
2026-05-04 10:25 42.26957 -2.01259 31970 ft 402 kts 209°
2026-05-04 10:26 42.21935 -2.04594 31975 ft 402 kts 209°
2026-05-04 10:26 42.16908 -2.07925 31973 ft 403 kts 209°
2026-05-04 10:27 42.11873 -2.11252 31983 ft 403 kts 209°
2026-05-04 10:27 42.06835 -2.14576 31967 ft 403 kts 209°
2026-05-04 10:28 42.01796 -2.17895 31976 ft 403 kts 209°
2026-05-04 10:28 41.96762 -2.21207 31968 ft 403 kts 209°
2026-05-04 10:29 41.91728 -2.24512 31973 ft 403 kts 209°
2026-05-04 10:29 41.86693 -2.27812 31981 ft 403 kts 209°
2026-05-04 10:30 41.81649 -2.31113 31983 ft 403 kts 209°
2026-05-04 10:30 41.76613 -2.34401 31981 ft 403 kts 209°
2026-05-04 10:31 41.71607 -2.37665 31981 ft 403 kts 209°
2026-05-04 10:32 41.53926 -2.49152 31996 ft 403 kts 209°
2026-05-04 10:33 41.48913 -2.52393 31993 ft 403 kts 209°
2026-05-04 10:33 41.43859 -2.55644 31987 ft 403 kts 209°
2026-05-04 10:34 41.38807 -2.58889 31990 ft 403 kts 209°
2026-05-04 10:34 41.33753 -2.62131 31986 ft 403 kts 209°
2026-05-04 10:35 41.29019 -2.66045 32000 ft 400 kts 217°
2026-05-04 10:35 41.24457 -2.70290 31993 ft 401 kts 217°
2026-05-04 10:36 41.19875 -2.74515 31990 ft 401 kts 217°
2026-05-04 10:36 41.15284 -2.78728 31982 ft 401 kts 217°
2026-05-04 10:37 41.10688 -2.82937 31989 ft 401 kts 217°
2026-05-04 10:37 41.06093 -2.87138 31990 ft 401 kts 217°
2026-05-04 10:39 40.89997 -3.01794 31998 ft 401 kts 217°
2026-05-04 10:40 40.85407 -3.05958 31999 ft 400 kts 217°
2026-05-04 10:40 40.80893 -3.10046 32004 ft 400 kts 217°
2026-05-04 10:41 40.76372 -3.14133 32000 ft 400 kts 217°
2026-05-04 10:41 40.71781 -3.18276 31993 ft 400 kts 217°
2026-05-04 10:42 40.67194 -3.22409 31997 ft 399 kts 217°
2026-05-04 10:42 40.62608 -3.26535 32003 ft 399 kts 217°
2026-05-04 10:43 40.58792 -3.29961 31990 ft 399 kts 217°
2026-05-04 10:45 40.40445 -3.46370 31999 ft 398 kts 217°
2026-05-04 10:45 40.35862 -3.50455 31991 ft 398 kts 217°
2026-05-04 10:46 40.31275 -3.54536 31997 ft 398 kts 217°
2026-05-04 10:46 40.26695 -3.58600 32011 ft 397 kts 217°
2026-05-04 10:47 40.22130 -3.62647 32014 ft 396 kts 217°
2026-05-04 10:47 40.17572 -3.66681 32018 ft 395 kts 217°
2026-05-04 10:49 39.99376 -3.82707 32019 ft 395 kts 217°
2026-05-04 10:50 39.94821 -3.86702 32016 ft 395 kts 217°
2026-05-04 10:52 39.76596 -4.02629 32016 ft 394 kts 217°
2026-05-04 10:52 39.72037 -4.06597 32033 ft 395 kts 217°
2026-05-04 10:54 39.53756 -4.22492 32025 ft 396 kts 217°
2026-05-04 10:56 39.35371 -4.38378 32026 ft 399 kts 217°
2026-05-04 10:57 39.30751 -4.42353 32020 ft 399 kts 217°
2026-05-04 10:57 39.26135 -4.46322 32029 ft 399 kts 217°
2026-05-04 10:58 39.21509 -4.50289 32039 ft 399 kts 217°
2026-05-04 10:58 39.16872 -4.54248 32038 ft 400 kts 217°
2026-05-04 10:59 39.12236 -4.58195 32040 ft 400 kts 217°
2026-05-04 10:59 39.07588 -4.62152 32031 ft 401 kts 217°
2026-05-04 11:00 39.02932 -4.66109 32035 ft 401 kts 217°
2026-05-04 11:02 38.84255 -4.81917 32039 ft 403 kts 217°
2026-05-04 11:05 38.49051 -5.11203 32044 ft 405 kts 212°
2026-05-04 11:06 38.44001 -5.14328 32049 ft 406 kts 211°
2026-05-04 11:06 38.38896 -5.17433 32050 ft 407 kts 211°
2026-05-04 11:10 38.03173 -5.39455 32041 ft 408 kts 211°
2026-05-04 11:12 37.82706 -5.51985 32053 ft 409 kts 211°
2026-05-04 11:12 37.77575 -5.55115 32047 ft 410 kts 211°
2026-05-04 11:13 37.72439 -5.58242 32049 ft 410 kts 211°
2026-05-04 11:13 37.67334 -5.61346 32042 ft 410 kts 211°
2026-05-04 11:14 37.62160 -5.64488 32052 ft 410 kts 211°
2026-05-04 11:16 37.41798 -5.77244 32043 ft 404 kts 220°
2026-05-04 11:16 37.37532 -5.81768 32046 ft 401 kts 224°
2026-05-04 11:17 37.33287 -5.86322 32046 ft 401 kts 224°
2026-05-04 11:19 37.16212 -6.04434 32049 ft 403 kts 224°
2026-05-04 11:19 37.11926 -6.08961 32056 ft 403 kts 224°
2026-05-04 11:20 37.07636 -6.13486 32064 ft 403 kts 224°
2026-05-04 11:20 37.03341 -6.18009 32069 ft 404 kts 224°
2026-05-04 11:22 36.86113 -6.36086 32086 ft 405 kts 224°
2026-05-04 11:23 36.81792 -6.40602 32098 ft 405 kts 224°
2026-05-04 11:25 36.66655 -6.56374 32098 ft 405 kts 224°
2026-05-04 11:25 36.62326 -6.60866 32099 ft 405 kts 224°
2026-05-04 11:27 36.42847 -6.80995 32099 ft 405 kts 224°
2026-05-04 11:28 36.38509 -6.85457 32103 ft 405 kts 224°
2026-05-04 11:28 36.34166 -6.89918 32111 ft 405 kts 224°
2026-05-04 11:29 36.29824 -6.94374 32100 ft 405 kts 224°
2026-05-04 11:29 36.26183 -6.98105 32108 ft 405 kts 224°
2026-05-04 11:33 35.95774 -7.29081 32099 ft 405 kts 224°
2026-05-04 11:33 35.91417 -7.33494 32099 ft 405 kts 224°
2026-05-04 11:34 35.87060 -7.37901 32101 ft 405 kts 224°
2026-05-04 11:34 35.82698 -7.42304 32118 ft 405 kts 224°
2026-05-04 11:35 35.78314 -7.46685 32098 ft 405 kts 224°
2026-05-04 11:35 35.73929 -7.51050 32102 ft 405 kts 224°
2026-05-04 11:36 35.69545 -7.55411 32105 ft 405 kts 224°
2026-05-04 11:36 35.65160 -7.59772 32102 ft 405 kts 224°
2026-05-04 11:37 35.60776 -7.64127 32098 ft 405 kts 224°
2026-05-04 11:37 35.56390 -7.68477 32100 ft 405 kts 224°
2026-05-04 11:38 35.52002 -7.72822 32101 ft 405 kts 224°
2026-05-04 11:38 35.47614 -7.77162 32107 ft 405 kts 224°
2026-05-04 11:39 35.43222 -7.81501 32097 ft 406 kts 224°
2026-05-04 11:41 35.27906 -7.96768 32101 ft 406 kts 224°
2026-05-04 11:41 35.23529 -8.01128 32099 ft 405 kts 224°
2026-05-04 11:42 35.19150 -8.05484 32119 ft 406 kts 224°
2026-05-04 11:42 35.14767 -8.09839 32101 ft 406 kts 224°
2026-05-04 11:43 35.10375 -8.14194 32100 ft 407 kts 224°
2026-05-04 11:43 35.05977 -8.18551 32102 ft 407 kts 224°
2026-05-04 11:44 35.01571 -8.22905 32098 ft 408 kts 224°
2026-05-04 11:44 34.97166 -8.27257 32103 ft 408 kts 224°
2026-05-04 11:45 34.92751 -8.31611 32103 ft 408 kts 224°
2026-05-04 11:45 34.88328 -8.35967 32098 ft 409 kts 224°
2026-05-04 11:46 34.83898 -8.40323 32098 ft 409 kts 224°
2026-05-04 11:46 34.79461 -8.44678 32117 ft 410 kts 224°
2026-05-04 11:47 34.75023 -8.49033 32101 ft 410 kts 224°
2026-05-04 11:47 34.70582 -8.53383 32099 ft 410 kts 224°
2026-05-04 11:48 34.66134 -8.57731 32105 ft 410 kts 224°
2026-05-04 11:48 34.61691 -8.62067 32103 ft 410 kts 224°
2026-05-04 11:49 34.57248 -8.66400 32102 ft 409 kts 224°
2026-05-04 11:49 34.52805 -8.70727 32100 ft 410 kts 224°
2026-05-04 11:50 34.48360 -8.75052 32114 ft 410 kts 224°
2026-05-04 11:50 34.43909 -8.79374 32099 ft 410 kts 224°
2026-05-04 11:51 34.39446 -8.83672 32096 ft 410 kts 223°
2026-05-04 11:51 34.34973 -8.87963 32091 ft 410 kts 223°
2026-05-04 11:52 34.30506 -8.92248 32092 ft 410 kts 223°
2026-05-04 11:52 34.26032 -8.96541 32092 ft 410 kts 223°
2026-05-04 11:53 34.21554 -9.00825 32094 ft 411 kts 224°
2026-05-04 11:53 34.17072 -9.05107 32092 ft 411 kts 224°
2026-05-04 11:55 33.99144 -9.22186 32093 ft 411 kts 224°
2026-05-04 11:56 33.94645 -9.26460 32093 ft 412 kts 223°
2026-05-04 11:56 33.90163 -9.30709 32096 ft 413 kts 223°
2026-05-04 11:57 33.85636 -9.34996 32091 ft 414 kts 223°
2026-05-04 11:57 33.81100 -9.39284 32093 ft 415 kts 223°
2026-05-04 11:58 33.76554 -9.43575 32093 ft 416 kts 223°
2026-05-04 11:58 33.72003 -9.47866 32093 ft 416 kts 223°
2026-05-04 11:59 33.67451 -9.52152 32092 ft 416 kts 223°
2026-05-04 11:59 33.62903 -9.56428 32091 ft 415 kts 223°
2026-05-04 12:00 33.58354 -9.60699 32097 ft 415 kts 223°
2026-05-04 12:00 33.53802 -9.64964 32091 ft 415 kts 223°
2026-05-04 12:01 33.49249 -9.69228 32091 ft 415 kts 223°
2026-05-04 12:02 33.33314 -9.84107 32076 ft 415 kts 223°
2026-05-04 12:03 33.28756 -9.88350 32072 ft 415 kts 223°
2026-05-04 12:03 33.24191 -9.92593 32075 ft 416 kts 223°
2026-05-04 12:04 33.19620 -9.96834 32073 ft 416 kts 222°
2026-05-04 12:04 33.15041 -10.01078 32071 ft 417 kts 222°
2026-05-04 12:05 33.10447 -10.05333 32064 ft 418 kts 222°
2026-05-04 12:05 33.05870 -10.09564 32063 ft 420 kts 222°
2026-05-04 12:06 33.01251 -10.13829 32064 ft 421 kts 221°
2026-05-04 12:06 32.96613 -10.18099 32066 ft 422 kts 221°
2026-05-04 12:07 32.91965 -10.22372 32063 ft 422 kts 221°
2026-05-04 12:07 32.87310 -10.26649 32068 ft 423 kts 221°
2026-05-04 12:08 32.82645 -10.30930 32063 ft 424 kts 221°
2026-05-04 12:08 32.77974 -10.35215 32064 ft 424 kts 221°
2026-05-04 12:09 32.73299 -10.39493 32065 ft 424 kts 221°
2026-05-04 12:09 32.68622 -10.43768 32067 ft 424 kts 221°
2026-05-04 12:10 32.63942 -10.48039 32059 ft 425 kts 221°
2026-05-04 12:10 32.59258 -10.52307 32054 ft 424 kts 221°
2026-05-04 12:11 32.54575 -10.56571 32053 ft 425 kts 221°
2026-05-04 12:11 32.49882 -10.60837 32055 ft 425 kts 221°
2026-05-04 12:12 32.45220 -10.65069 32055 ft 425 kts 221°
2026-05-04 12:12 32.40500 -10.69350 32056 ft 425 kts 221°
2026-05-04 12:14 32.21749 -10.86292 32055 ft 425 kts 221°
2026-05-04 12:15 32.17843 -10.89811 32056 ft 425 kts 221°
2026-05-04 12:15 32.13143 -10.94040 32055 ft 425 kts 221°
2026-05-04 12:16 32.08444 -10.98262 32055 ft 425 kts 221°
2026-05-04 12:16 32.03744 -11.02479 32058 ft 425 kts 220°
2026-05-04 12:17 31.99040 -11.06694 32055 ft 425 kts 220°
2026-05-04 12:17 31.94332 -11.10908 32055 ft 425 kts 221°
2026-05-04 12:18 31.89621 -11.15119 32058 ft 425 kts 221°
2026-05-04 12:18 31.84906 -11.19328 32054 ft 425 kts 220°
2026-05-04 12:19 31.80192 -11.23531 32061 ft 425 kts 220°
2026-05-04 12:19 31.75476 -11.27730 32065 ft 425 kts 221°
2026-05-04 12:20 31.70762 -11.31928 32063 ft 425 kts 221°
2026-05-04 12:20 31.66043 -11.36130 32065 ft 426 kts 221°
2026-05-04 12:21 31.61318 -11.40332 32058 ft 426 kts 221°
2026-05-04 12:21 31.56593 -11.44528 32060 ft 426 kts 221°
2026-05-04 12:22 31.51865 -11.48723 32065 ft 426 kts 221°
2026-05-04 12:22 31.47141 -11.52911 32054 ft 426 kts 220°
2026-05-04 12:23 31.42408 -11.57101 32045 ft 427 kts 220°
2026-05-04 12:23 31.37672 -11.61287 32048 ft 426 kts 221°
2026-05-04 12:24 31.32938 -11.65464 32043 ft 426 kts 221°
2026-05-04 12:24 31.28206 -11.69634 32047 ft 425 kts 221°
2026-05-04 12:25 31.23479 -11.73796 32043 ft 425 kts 221°
2026-05-04 12:25 31.18786 -11.77921 32053 ft 425 kts 221°
2026-05-04 12:26 31.14070 -11.82064 32043 ft 424 kts 221°
2026-05-04 12:26 31.09359 -11.86195 32053 ft 423 kts 221°
2026-05-04 12:27 31.04653 -11.90315 32056 ft 423 kts 221°
2026-05-04 12:27 30.99955 -11.94426 32055 ft 422 kts 221°
2026-05-04 12:28 30.95260 -11.98528 32058 ft 421 kts 221°
2026-05-04 12:28 30.90543 -12.02645 32053 ft 421 kts 221°
2026-05-04 12:29 30.85889 -12.06701 32059 ft 420 kts 221°
2026-05-04 12:29 30.81208 -12.10774 32054 ft 420 kts 221°
2026-05-04 12:30 30.76536 -12.14837 32055 ft 419 kts 221°
2026-05-04 12:30 30.71865 -12.18892 32054 ft 419 kts 221°
2026-05-04 12:31 30.67196 -12.22942 32057 ft 418 kts 221°
2026-05-04 12:31 30.62529 -12.26985 32056 ft 418 kts 221°
2026-05-04 12:32 30.55551 -12.33023 32053 ft 417 kts 221°
2026-05-04 12:33 30.50901 -12.37041 32055 ft 417 kts 221°
2026-05-04 12:33 30.46245 -12.41042 32056 ft 417 kts 221°
2026-05-04 12:34 30.41587 -12.45037 32057 ft 417 kts 221°
2026-05-04 12:34 30.36928 -12.49031 32057 ft 416 kts 221°
2026-05-04 12:35 30.32273 -12.53019 32054 ft 416 kts 221°
2026-05-04 12:35 30.27616 -12.57005 32056 ft 416 kts 221°
2026-05-04 12:36 30.22953 -12.60991 32057 ft 417 kts 221°
2026-05-04 12:36 30.18287 -12.64975 32056 ft 417 kts 221°
2026-05-04 12:37 30.13626 -12.68951 32064 ft 417 kts 221°
2026-05-04 12:37 30.08962 -12.72923 32065 ft 416 kts 221°
2026-05-04 12:38 30.04306 -12.76905 32067 ft 416 kts 221°
2026-05-04 12:38 29.99651 -12.80883 32063 ft 416 kts 221°
2026-05-04 12:39 29.95029 -12.84827 32071 ft 415 kts 221°
2026-05-04 12:39 29.90381 -12.88787 32063 ft 415 kts 221°
2026-05-04 12:40 29.85740 -12.92738 32065 ft 414 kts 221°
2026-05-04 12:40 29.81107 -12.96678 32062 ft 414 kts 221°
2026-05-04 12:41 29.76482 -13.00608 32064 ft 413 kts 221°
2026-05-04 12:41 29.71857 -13.04532 32064 ft 413 kts 221°
2026-05-04 12:42 29.67233 -13.08451 32065 ft 413 kts 221°
2026-05-04 12:42 29.62614 -13.12362 32065 ft 412 kts 221°
2026-05-04 12:43 29.57996 -13.16265 32065 ft 412 kts 221°
2026-05-04 12:43 29.53379 -13.20163 32064 ft 412 kts 221°
2026-05-04 12:44 29.48770 -13.24050 32060 ft 404 kts 221°
2026-05-04 12:44 29.44320 -13.27800 32060 ft 399 kts 221°
2026-05-04 12:45 29.39784 -13.31625 32077 ft 410 kts 221°
2026-05-04 12:45 29.35236 -13.35646 32080 ft 413 kts 225°
2026-05-04 12:46 29.30951 -13.40016 32078 ft 412 kts 226°
2026-05-04 12:46 29.26701 -13.44418 32076 ft 412 kts 226°
2026-05-04 12:47 29.22436 -13.48787 32075 ft 411 kts 226°
2026-05-04 12:47 29.18156 -13.53134 32077 ft 411 kts 226°
2026-05-04 12:48 29.13877 -13.57463 32073 ft 410 kts 226°
2026-05-04 12:48 29.11742 -13.59622 31947 ft 411 kts 226°
2026-05-04 12:48 29.09594 -13.61793 31680 ft 412 kts 226°
2026-05-04 12:48 29.07452 -13.63955 31447 ft 411 kts 225°
2026-05-04 12:49 29.05305 -13.66121 31192 ft 412 kts 225°
2026-05-04 12:49 29.03151 -13.68293 30948 ft 414 kts 225°
2026-05-04 12:49 29.00984 -13.70476 30704 ft 416 kts 225°
2026-05-04 12:49 28.98811 -13.72665 30455 ft 417 kts 225°
2026-05-04 12:50 28.96633 -13.74858 30209 ft 418 kts 225°
2026-05-04 12:50 28.94450 -13.77054 29924 ft 419 kts 225°
2026-05-04 12:50 28.92276 -13.79238 29627 ft 419 kts 225°
2026-05-04 12:50 28.90084 -13.81441 29340 ft 421 kts 225°
2026-05-04 12:51 28.87885 -13.83650 29028 ft 422 kts 225°
2026-05-04 12:51 28.85681 -13.85863 28732 ft 422 kts 225°
2026-05-04 12:51 28.83475 -13.88076 28432 ft 422 kts 225°
2026-05-04 12:51 28.81268 -13.90288 28133 ft 423 kts 225°
2026-05-04 12:52 28.79057 -13.92504 27834 ft 423 kts 225°
2026-05-04 12:52 28.76847 -13.94716 27535 ft 423 kts 225°
2026-05-04 12:52 28.74630 -13.96933 27246 ft 424 kts 225°
2026-05-04 12:52 28.72411 -13.99153 26937 ft 425 kts 225°
2026-05-04 12:53 28.70183 -14.01381 26644 ft 427 kts 225°
2026-05-04 12:53 28.67944 -14.03619 26344 ft 429 kts 225°
2026-05-04 12:53 28.65697 -14.05863 26042 ft 430 kts 225°
2026-05-04 12:53 28.63444 -14.08111 25750 ft 432 kts 225°
2026-05-04 12:54 28.61185 -14.10364 25450 ft 432 kts 225°
2026-05-04 12:54 28.58923 -14.12618 25149 ft 432 kts 225°
2026-05-04 12:54 28.56664 -14.14868 24846 ft 431 kts 225°
2026-05-04 12:54 28.54409 -14.17110 24546 ft 429 kts 225°
2026-05-04 12:55 28.52168 -14.19338 24245 ft 427 kts 225°
2026-05-04 12:55 28.49940 -14.21553 23937 ft 424 kts 225°
2026-05-04 12:55 28.47723 -14.23757 23647 ft 422 kts 225°
2026-05-04 12:55 28.45517 -14.25948 23344 ft 420 kts 225°
2026-05-04 12:56 28.43322 -14.28126 23050 ft 419 kts 225°
2026-05-04 12:56 28.41133 -14.30298 22741 ft 417 kts 225°
2026-05-04 12:56 28.38947 -14.32466 22442 ft 416 kts 225°
2026-05-04 12:56 28.36772 -14.34621 22144 ft 415 kts 225°
2026-05-04 12:57 28.34599 -14.36772 21840 ft 414 kts 224°
2026-05-04 12:57 28.32434 -14.38915 21542 ft 413 kts 224°
2026-05-04 12:57 28.30272 -14.41055 21243 ft 412 kts 224°
2026-05-04 12:57 28.28114 -14.43185 20950 ft 411 kts 224°
2026-05-04 12:58 28.25959 -14.45314 20642 ft 410 kts 224°
2026-05-04 12:58 28.24505 -14.46751 20442 ft 410 kts 224°
2026-05-04 12:58 28.22356 -14.48874 20141 ft 409 kts 224°
2026-05-04 12:58 28.20213 -14.50990 19840 ft 408 kts 224°
2026-05-04 12:59 28.18074 -14.53100 19542 ft 408 kts 224°
2026-05-04 12:59 28.15933 -14.55211 19245 ft 407 kts 224°
2026-05-04 12:59 28.13800 -14.57311 18946 ft 406 kts 224°
2026-05-04 12:59 28.11671 -14.59407 18640 ft 405 kts 224°
2026-05-04 13:00 28.09545 -14.61500 18339 ft 404 kts 224°
2026-05-04 13:00 28.07438 -14.63571 18081 ft 394 kts 224°
2026-05-04 13:00 28.05420 -14.65549 17584 ft 377 kts 224°
2026-05-04 13:00 28.03462 -14.67470 16782 ft 369 kts 224°
2026-05-04 13:01 28.01526 -14.69373 15700 ft 368 kts 224°
2026-05-04 13:01 27.99596 -14.71270 14680 ft 367 kts 224°
2026-05-04 13:01 27.97679 -14.73151 13784 ft 362 kts 224°
2026-05-04 13:01 27.95791 -14.75003 13009 ft 358 kts 224°
2026-05-04 13:02 27.93918 -14.76839 12450 ft 356 kts 224°
2026-05-04 13:02 27.92054 -14.78666 11923 ft 354 kts 224°
2026-05-04 13:02 27.90198 -14.80483 11401 ft 352 kts 224°
2026-05-04 13:02 27.88361 -14.82282 11187 ft 345 kts 224°
2026-05-04 13:03 27.86566 -14.84036 11020 ft 335 kts 224°
2026-05-04 13:03 27.84859 -14.85703 10862 ft 314 kts 224°
2026-05-04 13:03 27.83254 -14.87269 10733 ft 296 kts 224°
2026-05-04 13:03 27.81742 -14.88742 10628 ft 278 kts 224°
2026-05-04 13:04 27.80321 -14.90131 10511 ft 263 kts 224°
2026-05-04 13:04 27.78955 -14.91468 10403 ft 258 kts 224°
2026-05-04 13:04 27.77603 -14.92792 10306 ft 256 kts 224°
2026-05-04 13:04 27.76258 -14.94107 10211 ft 255 kts 224°
2026-05-04 13:05 27.74915 -14.95419 10109 ft 255 kts 224°
2026-05-04 13:05 27.73577 -14.96725 10005 ft 255 kts 223°
2026-05-04 13:05 27.72232 -14.98036 9896 ft 255 kts 223°
2026-05-04 13:05 27.70895 -14.99337 9787 ft 253 kts 223°
2026-05-04 13:06 27.69655 -15.00711 9602 ft 249 kts 238°
2026-05-04 13:06 27.68865 -15.02437 9353 ft 248 kts 246°
2026-05-04 13:06 27.68124 -15.04199 9086 ft 249 kts 246°
2026-05-04 13:06 27.67370 -15.05963 8829 ft 250 kts 245°
2026-05-04 13:07 27.66607 -15.07730 8580 ft 252 kts 245°
2026-05-04 13:07 27.65832 -15.09511 8292 ft 255 kts 245°
2026-05-04 13:07 27.65049 -15.11305 8022 ft 254 kts 245°
2026-05-04 13:07 27.64270 -15.13089 7758 ft 253 kts 245°
2026-05-04 13:08 27.63741 -15.14957 7467 ft 251 kts 270°
2026-05-04 13:08 27.64034 -15.16864 7248 ft 246 kts 289°
2026-05-04 13:08 27.64640 -15.18632 6990 ft 245 kts 293°
2026-05-04 13:08 27.65291 -15.20403 6728 ft 244 kts 293°
2026-05-04 13:09 27.65932 -15.22172 6459 ft 244 kts 292°
2026-05-04 13:09 27.66565 -15.23948 6127 ft 242 kts 292°
2026-05-04 13:09 27.67180 -15.25690 5870 ft 236 kts 292°
2026-05-04 13:09 27.67778 -15.27386 5648 ft 230 kts 293°
2026-05-04 13:10 27.68372 -15.29074 5388 ft 228 kts 293°
2026-05-04 13:10 27.68954 -15.30738 5150 ft 228 kts 293°
2026-05-04 13:10 27.69531 -15.32388 4943 ft 230 kts 293°
2026-05-04 13:10 27.70115 -15.34058 4833 ft 226 kts 293°
2026-05-04 13:11 27.70684 -15.35685 4679 ft 219 kts 294°
2026-05-04 13:11 27.71233 -15.37258 4439 ft 211 kts 294°
2026-05-04 13:11 27.71762 -15.38775 4252 ft 206 kts 294°
2026-05-04 13:11 27.72288 -15.40275 4048 ft 206 kts 294°
2026-05-04 13:12 27.72814 -15.41779 3845 ft 206 kts 294°
2026-05-04 13:12 27.73563 -15.43116 3607 ft 200 kts 326°
2026-05-04 13:12 27.74777 -15.43804 3437 ft 194 kts 339°
2026-05-04 13:12 27.76010 -15.44442 3217 ft 193 kts 338°
2026-05-04 13:13 27.77211 -15.45056 2999 ft 186 kts 343°
2026-05-04 13:13 27.78421 -15.45105 2888 ft 168 kts 19°
2026-05-04 13:13 27.79525 -15.44690 2671 ft 164 kts 21°
2026-05-04 13:13 27.80564 -15.44259 2478 ft 156 kts 22°
2026-05-04 13:14 27.81552 -15.43828 2292 ft 152 kts 22°
2026-05-04 13:14 27.82525 -15.43397 2083 ft 149 kts 22°
2026-05-04 13:14 27.83494 -15.42967 1876 ft 148 kts 22°
2026-05-04 13:14 27.84458 -15.42539 1682 ft 146 kts 22°
2026-05-04 13:15 27.85403 -15.42120 1481 ft 146 kts 22°
2026-05-04 13:15 27.86347 -15.41698 1291 ft 146 kts 21°
2026-05-04 13:15 27.87299 -15.41277 1100 ft 147 kts 22°
2026-05-04 13:15 27.88247 -15.40855 884 ft 147 kts 22°
2026-05-04 13:16 27.89185 -15.40424 714 ft 146 kts 22°
2026-05-04 13:16 27.90139 -15.40016 515 ft 148 kts 22°
2026-05-04 13:16 27.91081 -15.39583 320 ft 148 kts 22°
2026-05-04 13:16 27.92050 -15.39164 117 ft 145 kts 21°
2026-05-04 13:17 27.92921 -15.38778 64 ft 118 kts 21°
2026-05-04 13:17 27.93484 -15.38529 58 ft 55 kts 21°
2026-05-04 13:17 27.93736 -15.38434 58 ft 35 kts 11°
2026-05-04 13:17 27.93920 -15.38437 66 ft 24 kts 349°
2026-05-04 13:18 27.94003 -15.38473 69 ft 0 kts 277°
2026-05-04 13:18 27.94002 -15.38473 72 ft 0 kts 276°
2026-05-04 13:18 27.94002 -15.38477 72 ft 1 kts 265°
2026-05-04 13:18 27.93984 -15.38494 73 ft 6 kts 212°
2026-05-04 13:19 27.93929 -15.38523 71 ft 10 kts 202°
2026-05-04 13:19 27.93865 -15.38551 78 ft 10 kts 201°
2026-05-04 13:19 27.93801 -15.38580 72 ft 10 kts 202°
2026-05-04 13:19 27.93740 -15.38607 77 ft 9 kts 200°
2026-05-04 13:20 27.93680 -15.38633 69 ft 9 kts 201°
2026-05-04 13:20 27.93608 -15.38665 77 ft 12 kts 200°
2026-05-04 13:20 27.93534 -15.38697 76 ft 7 kts 201°
2026-05-04 13:20 27.93511 -15.38709 76 ft 0 kts 216°
2026-05-04 13:21 27.93512 -15.38717 76 ft 2 kts 279°
2026-05-04 13:21 27.93516 -15.38731 74 ft 3 kts 289°
2026-05-04 13:21 27.93527 -15.38763 82 ft 5 kts 291°
2026-05-04 13:21 27.93535 -15.38785 83 ft 0 kts 291°